Three Rivers, MI

5:52 PM EDT on March 25, 2017 (GMT -0400)
Three Rivers Municipal-Haines

Weather History for KHAI - November, 2012

Change the Weather History Date:

Saturday, November 24, 2012

  Actual Average Record
Temperature  
Mean Temperature 30 °F -  
Max Temperature 32 °F 44 °F 62 °F (1973)
Min Temperature 28 °F 28 °F -4 °F (1950)
Degree Days  
Heating Degree Days 35    
Moisture  
Dew Point 22 °F    
Average Humidity 69    
Maximum Humidity 76    
Minimum Humidity 63    
Precipitation  
Precipitation 0.00 in - - ()
Sea Level Pressure  
Sea Level Pressure 30.12 in    
Wind  
Wind Speed 11 mph (WNW)    
Max Wind Speed 15 mph    
Max Gust Speed 21 mph    
Visibility 10 miles    
Events      
Averages and records for this station are not official NWS values.
T = Trace of Precipitation, MM = Missing Value Source: NWS Daily Summary

Daily Weather History Graph

Daily Weather History Graph

Search for Another Location

Airport or City:

Trip Planner

Search our weather history database for the weather conditions in past years. The results will help you decide how hot, cold, wet, or windy it might be!

Date:

Astronomy

Nov. 24, 2012 Rise Set
Actual Time 7:43 AM EST 5:14 PM EST
Civil Twilight 7:12 AM EST 5:45 PM EST
Nautical Twilight 6:38 AM EST 6:19 PM EST
Astronomical Twilight 6:05 AM EST 6:53 PM EST
Moon 3:01 PM EST (11/24) 3:56 AM EST (11/24)
Length of Visible Light 10h 32m
Length of Day
9h 31m
Waxing Gibbous, 87% of the Moon is Illuminated
Nov 24
Waxing Gibbous
Nov 28
Full
Dec 6
Last Quarter
Dec 13
New
Dec 20
First Quarter

Hourly Weather History & Observations

Time (EST) Temp. Windchill Dew Point Humidity Pressure Visibility Wind Dir Wind Speed Gust Speed Precip Events Conditions
12:13 AM 32.9 °F 23.7 °F 22.8 °F 66% 30.09 in 10.0 mi WNW 12.7 mph 18.4 mph N/A   Overcast
12:34 AM 32.5 °F 23.2 °F 23.0 °F 68% 30.10 in 10.0 mi WNW 12.7 mph 18.4 mph N/A   Overcast
12:53 AM 32.5 °F 22.3 °F 23.0 °F 68% 30.09 in 10.0 mi NW 15.0 mph 20.7 mph N/A   Overcast
1:13 AM 32.5 °F 23.7 °F 23.2 °F 68% 30.09 in 10.0 mi WNW 11.5 mph - N/A   Overcast
1:34 AM 32.5 °F 24.2 °F 23.5 °F 69% 30.09 in 10.0 mi NW 10.4 mph 19.6 mph N/A   Overcast
1:53 AM 32.5 °F 24.2 °F 23.2 °F 68% 30.09 in 10.0 mi NW 10.4 mph 19.6 mph N/A   Overcast
2:13 AM 32.4 °F 23.5 °F 22.8 °F 68% 30.09 in 10.0 mi NW 11.5 mph 16.1 mph N/A   Overcast
2:34 AM 32.2 °F 25.0 °F 23.0 °F 69% 30.10 in 10.0 mi NW 8.1 mph - N/A   Overcast
2:53 AM 32.0 °F 23.0 °F 23.2 °F 70% 30.10 in 10.0 mi NW 11.5 mph 17.3 mph N/A   Overcast
3:14 AM 32.0 °F 21.6 °F 22.6 °F 68% 30.11 in 10.0 mi WNW 15.0 mph 20.7 mph N/A   Overcast
3:34 AM 32.0 °F 22.5 °F 22.1 °F 67% 30.11 in 10.0 mi NW 12.7 mph 20.7 mph N/A   Overcast
3:53 AM 31.8 °F 22.8 °F 22.3 °F 68% 30.11 in 10.0 mi WNW 11.5 mph 19.6 mph N/A   Overcast
4:14 AM 31.6 °F 21.2 °F 22.5 °F 69% 30.11 in 10.0 mi WNW 15.0 mph 19.6 mph N/A   Overcast
4:34 AM 31.1 °F 21.4 °F 23.0 °F 72% 30.11 in 10.0 mi WNW 12.7 mph - N/A   Overcast
4:53 AM 31.1 °F 22.4 °F 23.0 °F 72% 30.11 in 10.0 mi WNW 10.4 mph - N/A   Overcast
5:14 AM 31.1 °F 23.7 °F 22.8 °F 71% 30.12 in 10.0 mi WNW 8.1 mph - N/A   Overcast
5:33 AM 31.1 °F 22.4 °F 23.0 °F 72% 30.12 in 10.0 mi WNW 10.4 mph - N/A   Overcast
5:53 AM 31.1 °F 23.1 °F 23.4 °F 73% 30.12 in 10.0 mi WNW 9.2 mph - N/A   Overcast
6:13 AM 31.1 °F 22.4 °F 23.7 °F 74% 30.12 in 10.0 mi WNW 10.4 mph - N/A   Overcast
6:33 AM 31.1 °F 21.9 °F 23.5 °F 74% 30.12 in 10.0 mi WNW 11.5 mph 17.3 mph N/A   Overcast
6:54 AM 31.1 °F 22.4 °F 23.4 °F 73% 30.13 in 10.0 mi West 10.4 mph - N/A   Overcast
7:13 AM 31.1 °F 23.1 °F 23.4 °F 73% 30.13 in 10.0 mi WNW 9.2 mph - N/A   Overcast
7:33 AM 31.1 °F 23.7 °F 23.7 °F 74% 30.13 in 10.0 mi West 8.1 mph - N/A   Overcast
7:54 AM 31.1 °F 23.1 °F 23.7 °F 74% 30.14 in 10.0 mi WNW 9.2 mph - N/A   Overcast
8:13 AM 31.1 °F 24.5 °F 23.9 °F 75% 30.14 in 10.0 mi West 6.9 mph - N/A   Overcast
8:34 AM 31.1 °F 23.7 °F 23.9 °F 75% 30.14 in 10.0 mi WNW 8.1 mph - N/A   Overcast
8:54 AM 31.1 °F 23.7 °F 23.9 °F 75% 30.15 in 10.0 mi WNW 8.1 mph - N/A   Overcast
9:13 AM 31.1 °F 22.4 °F 24.3 °F 76% 30.15 in 10.0 mi WNW 10.4 mph - N/A   Overcast
9:34 AM 31.5 °F 23.5 °F 23.9 °F 74% 30.15 in 10.0 mi WNW 9.2 mph - N/A   Overcast
9:54 AM 31.8 °F 24.6 °F 24.3 °F 74% 30.16 in 10.0 mi NW 8.1 mph - N/A   Overcast
10:13 AM 32.0 °F 23.6 °F 23.7 °F 71% 30.16 in 10.0 mi NW 10.4 mph - N/A   Overcast
10:34 AM 32.0 °F 24.8 °F 23.7 °F 71% 30.16 in 10.0 mi WNW 8.1 mph - N/A   Overcast
10:53 AM 32.0 °F 24.2 °F 23.9 °F 72% 30.17 in 10.0 mi WNW 9.2 mph - N/A   Overcast
11:13 AM 32.0 °F 24.2 °F 23.9 °F 72% 30.16 in 10.0 mi WNW 9.2 mph - N/A   Overcast
11:34 AM 32.0 °F 24.8 °F 23.5 °F 71% 30.16 in 10.0 mi WNW 8.1 mph - N/A   Overcast
11:53 AM 32.2 °F 23.8 °F 23.4 °F 70% 30.15 in 10.0 mi WNW 10.4 mph - N/A   Overcast
12:14 PM 32.2 °F 23.8 °F 22.8 °F 68% 30.15 in 10.0 mi WNW 10.4 mph - N/A   Overcast
12:33 PM 32.2 °F 22.3 °F 22.3 °F 67% 30.15 in 10.0 mi WNW 13.8 mph 18.4 mph N/A   Overcast
12:54 PM 32.4 °F 24.0 °F 22.5 °F 67% 30.14 in 10.0 mi NW 10.4 mph - N/A   Overcast
1:13 PM 32.5 °F 24.8 °F 22.1 °F 65% 30.14 in 10.0 mi NW 9.2 mph 17.3 mph N/A   Overcast
1:33 PM 32.5 °F 23.7 °F 21.6 °F 64% 30.14 in 10.0 mi WNW 11.5 mph - N/A   Overcast
1:54 PM 32.5 °F 24.2 °F 22.1 °F 65% 30.14 in 10.0 mi WNW 10.4 mph - N/A   Overcast
2:13 PM 32.4 °F 23.0 °F 22.5 °F 67% 30.14 in 10.0 mi West 12.7 mph 16.1 mph N/A   Overcast
2:33 PM 32.4 °F 23.0 °F 22.1 °F 66% 30.14 in 10.0 mi WNW 12.7 mph - N/A   Overcast
2:54 PM 32.2 °F 23.8 °F 22.6 °F 68% 30.13 in 10.0 mi WNW 10.4 mph - N/A   Overcast
3:13 PM 32.0 °F 23.0 °F 22.1 °F 67% 30.12 in 10.0 mi WNW 11.5 mph - N/A   Overcast
3:34 PM 32.0 °F 22.5 °F 20.8 °F 63% 30.12 in 10.0 mi WNW 12.7 mph - N/A   Overcast
3:54 PM 32.0 °F 23.6 °F 21.7 °F 66% 30.12 in 10.0 mi West 10.4 mph - N/A   Overcast
4:13 PM 32.0 °F 23.6 °F 21.4 °F 65% 30.13 in 10.0 mi West 10.4 mph - N/A   Overcast
4:34 PM 31.6 °F 22.6 °F 21.2 °F 65% 30.13 in 10.0 mi West 11.5 mph - N/A   Overcast
4:54 PM 31.5 °F 22.3 °F 20.3 °F 63% 30.13 in 10.0 mi WNW 11.5 mph - N/A   Overcast
5:13 PM 31.5 °F 25.8 °F 21.2 °F 66% 30.13 in 10.0 mi WNW 5.8 mph - N/A   Overcast
5:34 PM 31.3 °F 26.6 °F 21.4 °F 67% 30.11 in 10.0 mi West 4.6 mph - N/A   Overcast
5:53 PM 31.1 °F 23.7 °F 22.1 °F 69% 30.12 in 10.0 mi West 8.1 mph - N/A   Overcast
6:13 PM 31.1 °F 24.5 °F 22.6 °F 71% 30.12 in 10.0 mi West 6.9 mph - N/A   Overcast
6:34 PM 31.1 °F 25.4 °F 22.1 °F 69% 30.11 in 10.0 mi West 5.8 mph - N/A   Overcast
6:53 PM 31.1 °F 24.5 °F 22.3 °F 70% 30.11 in 10.0 mi West 6.9 mph - N/A   Overcast
7:13 PM 30.9 °F 25.2 °F 21.9 °F 69% 30.11 in 10.0 mi West 5.8 mph - N/A   Overcast
7:34 PM 30.9 °F 25.2 °F 22.1 °F 70% 30.10 in 10.0 mi West 5.8 mph - N/A   Overcast
7:53 PM 30.7 °F 24.1 °F 21.7 °F 69% 30.11 in 10.0 mi West 6.9 mph - N/A   Overcast
8:14 PM 30.0 °F 22.4 °F 21.2 °F 70% 30.10 in 10.0 mi WSW 8.1 mph - N/A   Overcast
8:34 PM 29.8 °F 23.9 °F 20.8 °F 69% 30.09 in 10.0 mi WSW 5.8 mph - N/A   Overcast
8:53 PM 29.3 °F 23.2 °F 20.3 °F 69% 30.08 in 10.0 mi WSW 5.8 mph - N/A   Overcast
9:14 PM 28.8 °F 21.7 °F 18.9 °F 67% 30.07 in 10.0 mi SW 6.9 mph - N/A   Overcast
9:34 PM 28.4 °F 22.2 °F 19.4 °F 69% 30.07 in 10.0 mi SSW 5.8 mph - N/A   Overcast
9:53 PM 28.8 °F 20.2 °F 19.9 °F 70% 30.07 in 10.0 mi SW 9.2 mph - N/A   Overcast
10:14 PM 28.9 °F 21.9 °F 20.5 °F 71% 30.06 in 10.0 mi SSW 6.9 mph - N/A   Overcast
10:33 PM 28.9 °F 20.4 °F 20.3 °F 70% 30.05 in 10.0 mi SW 9.2 mph - N/A   Mostly Cloudy
10:53 PM 28.9 °F 21.1 °F 20.1 °F 70% 30.05 in 10.0 mi SSW 8.1 mph - N/A   Mostly Cloudy
11:14 PM 28.9 °F 20.4 °F 19.8 °F 69% 30.06 in 10.0 mi SW 9.2 mph - N/A   Overcast
11:33 PM 28.8 °F 20.9 °F 19.8 °F 69% 30.05 in 10.0 mi SSW 8.1 mph - N/A   Overcast
11:53 PM 28.4 °F 20.4 °F 19.9 °F 71% 30.05 in 10.0 mi SSW 8.1 mph - N/A   Mostly Cloudy